This demonstration page uses our WeatherBlox Daily Observations layout. Learn more.

Left ArrowRight Arrow

38.20091, -84.87328

Hourly Observations for August 28, 2017

Temp ( °F °C ) Dew Point ( °F °C ) Humidity (%) Winds ( mph kmh ) Pressure ( in mb ) Visibility ( mi km ) Precip ( " mm )
12:53 am 00:53 Clear 64 17.8 59 15 84 84 Calm 30.01 1016 10 16 0.00 0.00
1:53 am 01:53 Clear 65 18.3 59 15 81 81 Calm 29.99 1016 10 16 0.00 0.00
2:53 am 02:53 Clear 63 17.2 58 14.4 84 84 Calm 29.97 1015 10 16 0.00 0.00
3:53 am 03:53 Clear 62 16.7 58 14.4 86 86 Calm 29.96 1015 10 16 0.00 0.00
4:53 am 04:53 Mostly Clear 63 17.2 58 14.4 84 84 Calm 29.97 1015 10 16 0.00 0.00
5:53 am 05:53 Partly Cloudy 64 17.8 59 15 84 84 Calm 29.97 1015 10 16 0.00 0.00
6:53 am 06:53 Mostly Clear 64 17.8 59 15 84 84 Calm 30.00 1016 10 16 0.00 0.00
7:53 am 07:53 Sunny 65 18.3 60 15.6 84 84 Calm 30.00 1016 10 16 0.00 0.00
8:53 am 08:53 Sunny 69 20.6 62 16.7 78 78 Calm 30.01 1016 10 16 0.00 0.00
9:53 am 09:53 Mostly Cloudy 73 22.8 64 17.8 74 74 Calm 30.01 1016 10 16 0.00 0.00
10:36 am 10:36 Mostly Cloudy with Nearby Thunderstorms 73 22.8 65 18.3 76 76 SW 6 9 30.00 1016 10 16 0.00 0.00
10:53 am 10:53 Mostly Cloudy 75 23.9 66 18.9 74 74 SW 5 7 30.02 1017 10 16 0.00 0.00
11:53 am 11:53 Partly Cloudy 76 24.4 66 18.9 72 72 SW 8 13 30.02 1017 10 16 0.00 0.00
12:05 pm 12:05 Mostly Cloudy with Nearby Thunderstorms 74 23.3 65 18.3 74 74 S 14 22 30.03 1017 10 16 0.00 0.00
12:46 pm 12:46 Cloudy 72 22.2 64 17.8 76 76 SE 10 17 30.03 1017 10 16 0.00 0.00
12:53 pm 12:53 Mostly Cloudy 71 21.7 64 17.8 79 79 ESE 7 11 30.03 1017 10 16 0.00 0.00
1:00 pm 13:00 Partly Cloudy 71 21.7 64 17.8 79 79 SE 8 13 30.03 1017 10 16 0.00 0.00
1:53 pm 13:53 Mostly Sunny 71 21.7 63 17.2 76 76 S 6 9 30.03 1017 10 16 0.00 0.00
2:53 pm 14:53 Mostly Cloudy 71 21.7 64 17.8 79 79 S 8 13 30.04 1017 10 16 0.00 0.00
3:53 pm 15:53 Cloudy 71 21.7 65 18.3 81 81 S 7 11 30.02 1017 10 16 0.00 0.00
4:06 pm 16:06 Cloudy with Light Rain 71 21.7 66 18.9 84 84 S 8 13 30.00 1016 10 16 0.00 0.03
4:29 pm 16:29 Cloudy with Light Rain 71 21.7 66 18.9 84 84 S 6 9 30.00 1016 10 16 0.01 0.25
4:48 pm 16:48 Mostly Cloudy 72 22 66 19 83 83 SSE 7 11 30.00 1016 10 16 0.01 0.25
4:53 pm 16:53 Mostly Cloudy 72 22.2 67 19.4 84 84 SSE 7 11 30.01 1016 10 16 0.01 0.25
5:07 pm 17:07 Mostly Cloudy 72 22.2 67 19.4 84 84 SSE 6 9 30.00 1016 10 16 0.00 0.00
5:51 pm 17:51 Cloudy 73 23 66 19 78 78 S 9 15 30.00 1016 10 16 0.00 0.00
5:53 pm 17:53 Mostly Cloudy 73 22.8 66 18.9 79 79 SSE 8 13 30.00 1016 10 16 0.00 0.00
6:53 pm 18:53 Cloudy 72 22.2 66 18.9 82 82 SE 9 15 30.00 1016 10 16 0.00 0.00
7:28 pm 19:28 Partly Cloudy 72 22.2 66 18.9 82 82 SE 7 11 30.00 1016 10 16 0.00 0.00
7:53 pm 19:53 Sunny 71 21.7 65 18.3 81 81 ESE 7 11 30.00 1016 10 16 0.00 0.00
8:53 pm 20:53 Clear 69 20.6 64 17.8 84 84 SE 6 9 30.01 1016 10 16 0.00 0.00
9:53 pm 21:53 Clear 68 20 64 17.8 87 87 SE 5 7 30.02 1017 10 16 0.00 0.00
10:53 pm 22:53 Mostly Clear 67 19.4 63 17.2 87 87 SSE 5 7 30.02 1017 10 16 0.00 0.00
11:53 pm 23:53 Clear 67 19.4 63 17.2 87 87 SSE 5 7 30.01 1016 10 16 0.00 0.00

Powered by AerisWeather